Preview of NWS' New Version of Forecast
This preview is not operational and should not be used for support decisions.

Regional Weather Roundup (RWR)

Issued by National Weather Service (NWS)

                            
000
ASUS44 KMEG 261110
RWRTN 
TENNESSEE HOURLY STATE WEATHER ROUNDUP
NATIONAL WEATHER SERVICE MEMPHIS TN
600 AM CDT TUE MAR 26 2019

TNZ002-004-019-021-049-052-054-088>092-261200-
WEST TENNESSEE
  
CITY           SKY/WX    TMP DP  RH WIND       PRES   REMARKS
MEMPHIS INTL   FAIR      46  39  76 N8        30.26R                  
NWS MEMPHIS      N/A     46 N/A N/A MISG        N/A                   
JACKSON        FAIR      44  39  82 N10       30.27R                  
DYERSBURG      CLOUDY    45  40  82 N6        30.29R                  
SOMERVILLE     PTCLDY    46  39  76 VRB7      30.24R                  
COVINGTON      CLOUDY    46  41  81 NE8       30.27R                  
UNION CITY     PTCLDY    41  37  87 N6        30.27R                  
BOLIVAR        CLOUDY    48  41  76 N8G15     30.23S                  
PARIS          CLOUDY    41  36  81 N8        30.27R                  
HUNTINGDON     MOCLDY    43  41  93 N3        30.27R                  
LEXINGTON      CLOUDY    46  37  71 N8        30.24R                  
SELMER         CLOUDY    48  41  76 N12       30.22R                  
SAVANNAH       CLOUDY    50  39  66 N14       30.23R                  
$$

TNZ008-025-027-028-033-062-065-066-261200-
NORTH MIDDLE TENNESSEE
  
CITY           SKY/WX    TMP DP  RH WIND       PRES   REMARKS
NASHVILLE      FAIR      40  31  70 N10       30.24R WCI  33          
DICKSON        PTSUNNY   39  36  87 N7        30.23R WCI  34          
CLARKSVILLE    FAIR      36  31  82 N5        30.27R WCI  32          
LEBANON        PTSUNNY   39  30  70 N6        30.22R WCI  35          
SMYRNA         FAIR      40  32  73 N9        30.25R WCI  34          
MURFREESBORO   CLOUDY    43  36  75 N13G18    30.21R                  
COOKEVILLE     CLOUDY    43  37  81 VRB7G14   30.18R                  
LIVINGSTON     CLOUDY    36  28  75 N7G15     30.18R WCI  30          
GALLATIN       PTSUNNY   37  27  65 N10       30.27R WCI  30          
CROSSVILLE     CLOUDY    39  35  86 N13G21    30.15R WCI  31          
ROCKWOOD       CLOUDY    41  37  87 N12G20    30.13R                  
$$

TNZ061-075-076-078-094-096-097-261200-
SOUTH MIDDLE TENNESSEE
  
CITY           SKY/WX    TMP DP  RH WIND       PRES   REMARKS
LAWRENCEBURG   CLOUDY    45  37  76 N9        30.19R                  
LEWISBURG      CLOUDY    45  37  76 N9        30.21R                  
FAYETTEVILLE   CLOUDY    45  39  81 N14       30.17R                  
TULLAHOMA      CLOUDY    43  37  81 N7        30.17R                  
WINCHESTER     CLOUDY    45  39  81 N14       30.17R                  
MCMINNVILLE    CLOUDY    43  37  81 NE9       30.18R                  
COLUMBIA       MOCLDY    43  37  81 N9        30.20R                  
SHELBYVILLE    CLOUDY    43  37  81 N13G21    30.20R                  
$$

TNZ017-018-042-046-047-261200-
NORTHEAST TENNESSEE
  
CITY           SKY/WX    TMP DP  RH WIND       PRES   REMARKS
TRI CITIES     CLOUDY    44  39  82 N7        30.10R                  
ELIZABETHTON   CLOUDY    46  41  81 VRB7      30.08R                  
GREENEVILLE    CLOUDY    46  41  81 NE8       30.10R                  
$$

TNZ012-013-036-069-073-074-261200-
CENTRAL EAST TENNESSEE
  
CITY           SKY/WX    TMP DP  RH WIND       PRES   REMARKS
KNOXVILLE      CLOUDY    46  41  82 N8        30.12R                  
OAK RIDGE      CLOUDY    46  37  71 VRB5      30.16R                  
DOWNTOWN KNOXV CLOUDY    46  43  87 VRB3      30.14R                  
GATLINBURG     CLOUDY    46  43  87 CALM      30.12R                  
MORRISTOWN     CLOUDY    46  41  81 N9        30.11R                  
JACKSBORO      CLOUDY    43  37  81 N8        30.19R                  
$$

TNZ083-085-099-261200-
SOUTHEAST TENNESSEE
  
CITY           SKY/WX    TMP DP  RH WIND       PRES   REMARKS
CHATTANOOGA    MOCLDY    49  41  74 N10       30.15R                  
DAYTON         CLOUDY    46  43  87 N7        30.15R                  
$$

SKY/WX REPORTED AS FAIR MEANS FEW OR NO CLOUDS BELOW
12 THOUSAND FEET.